Location: Ellingshausen
(50.5460°N, 10.4723°E)
Time: 12:51:30
(UTC+00:00)

Cosmos 676 Rocket - Pass Details

Date: 10 April 2026
Orbit: 750 x 779 km, 74.0° (Epoch: 19 May)

Event Time Altitude Azimuth Distance (km) Brightness Sun altitude
Rises 00:22:02 0° 336° (NNW) 3,273 7.9 -30.0°
Reaches altitude 10° 00:24:27 10° 338° (NNW) 2,339 7.1 -29.9°
Enters shadow 00:28:55 62° 358° (N) 871 4.4 -29.7°
